Date,TemperatureHighF,TemperatureAvgF,TemperatureLowF,DewpointHighF,DewpointAvgF,DewpointLowF,HumidityHigh,HumidityAvg,HumidityLow,PressureMaxIn,PressureMinIn,WindSpeedMaxMPH,WindSpeedAvgMPH,GustSpeedMaxMPH,PrecipitationSumIn
2013-11-1,56.3,44.1,35.2,44.3,39.7,34.2,97,85,63,30.26,29.95,24,8,26,0.00
2013-11-2,46.4,40.5,31.2,41.8,33.4,24.5,92,76,51,30.06,29.76,32,11,41,0.05
2013-11-3,41.1,35.0,31.2,30.2,27.8,23.5,91,76,50,30.15,30.01,20,8,23,0.00
2013-11-4,45.8,38.3,32.7,32.4,30.1,25.7,85,73,45,30.19,30.10,21,6,23,0.00
2013-11-5,48.7,42.7,37.7,42.3,37.9,31.7,90,83,74,30.24,30.12,30,13,30,0.00
2013-11-6,53.9,48.6,44.5,46.4,43.9,41.8,92,84,75,30.27,30.09,22,7,23,0.00
2013-11-7,52.3,44.0,36.8,44.9,37.4,25.9,89,78,55,30.10,29.84,36,10,38,0.11
2013-11-8,44.1,37.9,31.0,32.7,30.6,27.9,89,75,61,30.19,30.08,18,6,22,0.00
2013-11-9,54.8,39.6,29.2,37.3,31.5,26.8,92,74,46,30.15,30.08,16,5,19,0.00
2013-11-10,61.7,46.8,36.9,42.2,37.0,32.7,89,71,35,30.15,30.06,17,6,21,0.00
2013-11-11,39.5,36.2,34.0,37.0,34.7,31.4,98,94,86,30.28,30.14,10,2,10,0.00
2013-11-12,56.7,45.1,35.1,46.6,39.1,33.1,97,81,58,30.39,30.25,21,6,25,0.03
2013-11-13,57.2,42.0,31.7,40.8,33.1,27.0,97,74,34,30.44,30.25,16,5,16,0.00
2013-11-14,46.4,36.0,29.3,28.9,26.5,21.6,86,69,38,30.25,30.06,22,7,23,0.00
2013-11-15,41.1,34.1,28.0,29.3,26.3,23.1,88,74,56,30.08,29.60,31,10,34,0.00
2013-11-16,42.1,38.8,35.3,31.3,28.9,25.0,82,68,52,29.83,29.50,30,13,38,0.00
2013-11-17,44.8,39.4,35.0,32.5,30.0,27.6,79,69,54,30.04,29.83,27,12,31,0.00
2013-11-18,48.5,42.4,38.1,37.9,32.6,28.3,90,69,55,30.02,29.79,31,10,34,0.04
2013-11-19,46.1,42.0,38.7,42.4,39.1,36.0,93,89,83,29.83,29.76,34,12,34,0.20
2013-11-20,40.2,29.0,19.6,38.1,18.8,-2.9,94,67,36,30.42,29.83,21,9,23,0.01
2013-11-21,30.4,21.9,14.0,7.6,1.7,-3.2,71,42,30,30.77,30.42,18,5,19,0.00
2013-11-22,34.7,21.5,11.5,12.1,9.0,4.9,78,60,35,30.82,30.70,14,5,17,0.00
2013-11-23,37.4,24.5,12.0,24.0,14.1,8.0,86,66,42,30.70,30.42,9,3,10,0.00
2013-11-24,55.5,35.7,22.6,21.1,17.5,10.6,76,52,17,30.42,30.29,20,6,24,0.00
2013-11-25,54.2,36.7,27.0,22.6,20.0,13.9,71,53,20,30.41,30.34,19,5,19,0.00
2013-11-26,50.0,39.3,29.0,23.5,21.4,19.0,71,50,32,30.31,30.19,22,5,22,0.00
2013-11-27,44.8,36.5,27.2,26.5,24.5,21.5,81,62,47,30.13,30.06,10,3,12,0.00
2013-11-28,56.8,39.0,25.0,29.5,26.2,21.3,87,63,32,30.22,30.15,16,6,20,0.00
2013-11-29,54.8,44.9,29.0,29.0,26.5,23.6,80,51,33,30.31,30.24,21,7,26,0.00
2013-11-30,54.6,45.7,37.2,37.4,35.3,33.4,87,68,50,30.35,30.26,16,7,18,0.00